Showing default

VSP ROSE, 59124

Orbit data source: Space-Track

VSP ROSE, 59124 is a payload satellite owned by Aerospacelab (BE) in SSO that was launched on Mon, 04 Mar 2024 UTC via an FALCON 9 launch vehicle from the Air Force Western Test Range (AFWTR). Payload-class satellites include a variety of spacecraft equipped with specific instruments for various scientific and technological missions. These include communications satellites like Starlink; space stations such as the ISS; scientific satellites like the Hubble; Earth observation satellites from companies like Planet Labs, Umbra, and HawkEye 360; GPS; miniature CubeSats for education and research; and military/defense satellites.

Loading next visibility...
Identifier
59124, 2024-043AC
Orbit
SSO
Country
Flag of BEBE / BEL
Related business
Manufacturer
Aerospacelab
Mission
Operational Commercial Communications
Bus & Motor
AEROSP, Unknown motor
Mass
~200 kg wet, ~200 kg dry
Launch date (UTC)
2024-03-04 (2 years ago)
Launch vehicle
FALCON 9
Launch site
Air Force Western Test Range (AFWTR)
Object type
Payload
Rocket body
Debris
Shape & HBR
Box, 0.0 m
Radar Cross Section
0.004 m², Medium (>0.1 m² and < 1m²)

Expand to show TLE details & history
Last TLE update: 8 hours ago

TLE from 8 hours ago
0 VSP ROSE
1 59124U 24043AC  25259.28857241  .00007276  00000-0  29120-3 0  9993
2 59124  97.5258  27.7385 0012802 128.7815 231.4568 15.25303717 85181
Epoch: 2025-09-16T06:55Z
TLE epoch observation values (Epoch: 2025-09-16T06:55:32.656Z)
Latitude
-0.00004°
Longitude
-71.62858°
Altitude
498.454 km
Speed
7.612 km/s
True Right ascension
01h 50m 57s
True Declination
0° 00' 00"
Sunlit
Object was in full shadow at epoch
Visualization orbit readout
Latitude
Unknown
Longitude
Unknown
Altitude
Unknown
Speed
Unknown
Apparent Right ascension
Unknown
Apparent Declination
Unknown
Sunlit
N/A
Visualization observer readout
Local Sidereal Time
07:53:20
Azimuth
Unknown
Elevation
Unknown
Doppler factor
Unknown
Orbital elements
Apogee altitude
495.626 km
Perigee altitude
478.049 km
Semi-major axis
6,864.975 km
Eccentricity
0.00128
Inclination
97.5258°
RAAN
27.7385°
Arg. of periapsis
128.7815°
True anomaly
231.34217°
Mean anomaly
231.4568°
Eccentric anomaly
231.39948°
Mean motion
3.81579 °/min
Orbital period
94.34 mins
BSTAR
0.0002912
Loading maneuver chart data...
Computing Atmospheric mass density...
Loading historical data...
Loading historical data...
Loading historical data...
Loading historical data...
Loading historical data...
Loading historical data...
Loading historical data...

Documentation

Showing up to 5 results
|